Regional Weather Roundup
Issued by NWS

Home | Current Version | Previous Version | Text Only | Print | Product List | Glossary Off
Versions: 1 2 3 4 5 6 7 8 9 10 11 12 13 14 15 16 17 18 19 20 21 22 23 24 25 26 27 28 29 30 31 32 33 34 35 36 37 38 39 40 41 42 43 44 45 46 47 48 49 50

000
ASUS45 KBOU 130807
RWRCO

WEATHER ROUNDUP FOR COLORADO
NATIONAL WEATHER SERVICE DENVER/BOULDER CO
100 AM MST SAT FEB 13 2016

NOTE: "FAIR" INDICATES FEW OR NO CLOUDS BELOW 12000 FEET WITH NO
SIGNIFICANT WEATHER AND/OR OBSTRUCTIONS TO VISIBILITY.

COZ001>005-013-030-031-130900-
...NORTHWEST COLORADO...

CITY           SKY/WX    TMP DP  RH WIND       PRES   REMARKS
CRAIG          FAIR      11   6  81 CALM      30.29F
HAYDEN         FAIR      27  16  63 SE14      30.27F WCI  15
MEEKER         FAIR      19  14  81 CALM      30.29F
MOUNT WERNER   NOT AVBL
STEAMBOAT SPGS FAIR      22  19  87 CALM      30.29F
WALDEN         FAIR      36  21  55 S10G18    30.28F
$$

COZ006>008-011-130900-
...WEST CENTRAL VALLEYS...

CITY           SKY/WX    TMP DP  RH WIND       PRES   REMARKS
GRAND JUNCTION FAIR      30  26  85 E7        30.31F WCI  23
MONTROSE       FAIR      29  23  78 S7        30.34F WCI  22
EAGLE          FAIR      25  21  86 CALM      30.36S
RIFLE          FAIR      24  18  77 CALM      30.33F
DELTA          FAIR      33  28  81 NE3       30.34S
NUCLA          FAIR      32  25  74 E5        30.37S WCI  27
$$

COZ017>023-064>068-130900-
...SOUTHWEST COLORADO...

CITY           SKY/WX    TMP DP  RH WIND       PRES   REMARKS
DURANGO        FAIR      28  21  75 N5        30.36F WCI  23
CORTEZ         FAIR      23  20  88 E5        30.34F WCI  17
PAGOSA SPRINGS FAIR      27  23  83 CALM      30.39F
TELLURIDE      FAIR      35  20  53 SE6       30.43F WCI  30
WOLF CREEK PAS FAIR      28  14  54 SW18      30.54F WCI  16
$$

COZ009-010-012-014-032>034-037-058>063-130900-
...CENTRAL COLORADO...

CITY           SKY/WX    TMP DP  RH WIND       PRES   REMARKS
ASPEN          FAIR      26  18  71 SE6       30.33F WCI  19
BUENA VISTA    FAIR      28  23  81 W5        30.33F WCI  23
COPPER MTN     FAIR      34  16  47 SW15G21   30.45F WCI  24
BERTHOUD PASS  FAIR      27  14  59 NW31G37   30.40F WCI  10
COTTONWOOD PAS FAIR      43  14  31 W8        30.37F
GUNNISON       FAIR       0  -9  65 NE5       30.47S WCI -10
KREMMLING      FAIR       9   3  78 CALM      30.37F
LEADVILLE      FAIR      30  14  51 NE9       30.36F WCI  22
MONARCH PASS   FAIR      28  16  59 W28       30.56F WCI  13
SALIDA         NOT AVBL
SUNLIGHT       FAIR      32  21  64 CALM      30.45F
WILKERSON PASS FAIR      30  18  59 SW12G17   30.41F WCI  21
$$

COZ069>075-130900-
...SAN LUIS VALLEY/SANGRE DE CRISTO MOUNTAINS...

CITY           SKY/WX    TMP DP  RH WIND       PRES   REMARKS
ALAMOSA        FAIR      22  19  89 E5        30.36F WCI  16
LA VETA PASS   FAIR      34  19  55 MISG      30.39F
SAGUACHE       FAIR      32  23  69 NW13      30.38S WCI  22
$$

COZ035-036-038>040-130900-
...NORTHERN COLORADO FRONT RANGE...

CITY           SKY/WX    TMP DP  RH WIND       PRES   REMARKS
DENVER INTL AP FOG       27  26  96 CALM      30.17F VSB 1/4
DMNS CITY PARK   N/A     32  31  96 MISG      30.18S
AURORA         MOCLDY    32  31  99 SW1       30.17F
FRONT RANGE AP FOG       28  28 100 W3        30.18F VSB 1
ERIE MUNI ARPT FOG       31  31 100 CALM      30.18F VSB 1/4
BOULDER MUN AP SNOW      32  32 100 NE3       30.17F VSB 1/2
CENTENNIAL     MOCLDY    34  31  88 CALM      30.17F
BROOMFIELD     FOG       32  32 100 CALM      30.17F VSB 1/4
FORT COLLINS   CLOUDY    30  28  93 E5        30.19F VSB 1/2 WCI  25
LONGMONT       FOG       33  32  96 CALM      30.21F VSB 1/4
$$

COZ041-046-047-076>085-087-088-130900-
...PIKES PEAK/PALMER DIVIDE AND SOUTHERN FOOTHILLS...

CITY           SKY/WX    TMP DP  RH WIND       PRES   REMARKS
COLO. SPRINGS  FAIR      33  26  75 SW6       30.24F WCI  28
A. F. ACADEMY  MOCLDY    33  27  77 SE3       30.22F
SCHRIEVER AFB  FAIR      31  27  84 NW7       30.24F WCI  25
ELLICOTT         N/A    N/A N/A N/A E5        30.22F
FALCON         FAIR      32  26  76 W7        30.24F WCI  26
FORT CARSON    FAIR      33  28  82 S3        30.23F
LIMON          CLOUDY    27  27 100 S13       30.24F FOG     WCI  16
MONUMENT HILL  FAIR      36  28  75 S9        30.22S
TRINIDAD       FAIR      45  21  38 VRB5      30.21F
$$

COZ042>045-048>051-090-091-130900-
...NORTHEAST COLORADO...

CITY           SKY/WX    TMP DP  RH WIND       PRES   REMARKS
GREELEY ARPT   CLOUDY    30  30 100 CALM      30.20F
AKRON          CLOUDY    30  30 100 S20G25    30.21F WCI  17
BURLINGTON     CLOUDY    27  24  89 S17       30.29F WCI  14
WRAY           CLOUDY   N/A N/A N/A SE16      30.30F HAZE
STERLING       CLOUDY    32  32 100 S13       30.22F WCI  22
HOLYOKE        CLOUDY    34  32  93 S16       30.29F FOG     WCI  23
FORT MORGAN    FAIR      31  30  96 SE6       30.20F WCI  25
$$

COZ086-089-092>099-130900-
...SOUTHEAST COLORADO...

CITY           SKY/WX    TMP DP  RH WIND       PRES   REMARKS
PUEBLO         FAIR      32  26  78 E5        30.25F WCI  27
LA JUNTA       FAIR      29  26  89 NE8       30.23F WCI  21
LAMAR          CLOUDY    29  26  89 SE13      30.27F WCI  19
SPRINGFIELD      N/A     27  25  92 S13       30.26F WCI  16
$$



USA.gov is the U.S. government's official web portal to all federal, state and local government web resources and services.